| time (UTC) | temp C | wind direction | speed KPH | gust KPH | rain 1hr cm | rain 24hr cm | rain mn cm | humidity % | barometer mb |
| 20260510201018 | 20 | 360 | 6.4 | 0.0 | 0.00 | 0.00 | 0.00 | 29 | 1018.8 |
| 20260510200519 | 20 | 360 | 6.4 | 0.0 | 0.00 | 0.00 | 0.00 | 29 | 1019.0 |
| 20260510200017 | 19 | 360 | 8.0 | 0.0 | 0.00 | 0.00 | 0.00 | 29 | 1019.0 |
| 20260510195515 | 19 | 360 | 9.7 | 0.0 | 0.00 | 0.00 | 0.00 | 28 | 1019.1 |
| 20260510195015 | 19 | 360 | 11.3 | 0.0 | 0.00 | 0.00 | 0.00 | 28 | 1019.2 |
| 20260510194515 | 19 | 360 | 8.0 | 0.0 | 0.00 | 0.00 | 0.00 | 29 | 1019.2 |
| 20260510194015 | 19 | 360 | 4.8 | 0.0 | 0.00 | 0.00 | 0.00 | 28 | 1019.2 |
| 20260510193515 | 19 | 360 | 3.2 | 0.0 | 0.00 | 0.00 | 0.00 | 29 | 1019.3 |
| 20260510193013 | 18 | 360 | 6.4 | 0.0 | 0.00 | 0.00 | 0.00 | 30 | 1019.4 |
| 20260510192512 | 18 | 360 | 8.0 | 0.0 | 0.00 | 0.00 | 0.00 | 29 | 1019.5 |
| 20260510192011 | 18 | 360 | 8.0 | 0.0 | 0.00 | 0.00 | 0.00 | 30 | 1019.5 |
| 20260510191611 | 18 | 360 | 8.0 | 0.0 | 0.00 | 0.00 | 0.00 | 29 | 1019.6 |
| 20260510191017 | 18 | 360 | 6.4 | 0.0 | 0.00 | 0.00 | 0.00 | 30 | 1019.5 |
| 20260510190513 | 18 | 360 | 4.8 | 0.0 | 0.00 | 0.00 | 0.00 | 29 | 1019.6 |
| 20260510190010 | 18 | 360 | 4.8 | 0.0 | 0.00 | 0.00 | 0.00 | 29 | 1019.7 |
| 20260510185515 | 18 | 360 | 6.4 | 0.0 | 0.00 | 0.00 | 0.00 | 28 | 1019.8 |
| 20260510185009 | 18 | 360 | 9.7 | 0.0 | 0.00 | 0.00 | 0.00 | 28 | 1019.8 |
| 20260510184508 | 18 | 360 | 8.0 | 0.0 | 0.00 | 0.00 | 0.00 | 28 | 1019.8 |
| 20260510184007 | 18 | 360 | 4.8 | 0.0 | 0.00 | 0.00 | 0.00 | 30 | 1020.0 |
| 20260510183506 | 18 | 360 | 6.4 | 0.0 | 0.00 | 0.00 | 0.00 | 29 | 1020.1 |
| 20260510183006 | 18 | 360 | 9.7 | 0.0 | 0.00 | 0.00 | 0.00 | 29 | 1020.1 |
| 20260510182505 | 18 | 360 | 9.7 | 0.0 | 0.00 | 0.00 | 0.00 | 30 | 1020.1 |
| 20260510182004 | 17 | 360 | 9.7 | 0.0 | 0.00 | 0.00 | 0.00 | 29 | 1020.1 |
| 20260510181610 | 18 | 360 | 6.4 | 0.0 | 0.00 | 0.00 | 0.00 | 28 | 1020.3 |
| 20260510181003 | 17 | 360 | 6.4 | 0.0 | 0.00 | 0.00 | 0.00 | 29 | 1020.3 |
| 20260510180503 | 17 | 360 | 8.0 | 0.0 | 0.00 | 0.00 | 0.00 | 28 | 1020.5 |
| 20260510180003 | 17 | 360 | 8.0 | 0.0 | 0.00 | 0.00 | 0.00 | 28 | 1020.4 |
| 20260510175501 | 17 | 360 | 4.8 | 0.0 | 0.00 | 0.00 | 0.00 | 28 | 1020.5 |
| 20260510175101 | 17 | 360 | 4.8 | 0.0 | 0.00 | 0.00 | 0.00 | 29 | 1020.5 |
| 20260510174600 | 17 | 360 | 6.4 | 0.0 | 0.00 | 0.00 | 0.00 | 29 | 1020.5 |
| 20260510174103 | 17 | 360 | 8.0 | 0.0 | 0.00 | 0.00 | 0.00 | 29 | 1020.6 |
| 20260510173602 | 17 | 360 | 9.7 | 0.0 | 0.00 | 0.00 | 0.00 | 28 | 1020.7 |
| 20260510173105 | 17 | 360 | 8.0 | 0.0 | 0.00 | 0.00 | 0.00 | 28 | 1020.8 |
| 20260510172558 | 17 | 360 | 6.4 | 0.0 | 0.00 | 0.00 | 0.00 | 28 | 1020.8 |
| 20260510172058 | 16 | 360 | 4.8 | 0.0 | 0.00 | 0.00 | 0.00 | 29 | 1020.9 |
| 20260510171606 | 16 | 360 | 8.0 | 0.0 | 0.00 | 0.00 | 0.00 | 29 | 1021.0 |
| 20260510171058 | 16 | 360 | 9.7 | 0.0 | 0.00 | 0.00 | 0.00 | 29 | 1021.0 |
| 20260510170558 | 16 | 360 | 9.7 | 0.0 | 0.00 | 0.00 | 0.00 | 28 | 1021.0 |
| 20260510170058 | 16 | 360 | 9.7 | 0.0 | 0.00 | 0.00 | 0.00 | 29 | 1020.9 |
| 20260510165558 | 16 | 360 | 9.7 | 0.0 | 0.00 | 0.00 | 0.00 | 30 | 1021.0 |
| 20260510165056 | 16 | 360 | 8.0 | 0.0 | 0.00 | 0.00 | 0.00 | 29 | 1021.0 |
| 20260510164601 | 16 | 360 | 9.7 | 0.0 | 0.00 | 0.00 | 0.00 | 29 | 1021.1 |
| 20260510164055 | 16 | 360 | 11.3 | 0.0 | 0.00 | 0.00 | 0.00 | 29 | 1021.1 |
| 20260510163555 | 16 | 360 | 9.7 | 0.0 | 0.00 | 0.00 | 0.00 | 29 | 1021.0 |
| 20260510163054 | 16 | 360 | 6.4 | 0.0 | 0.00 | 0.00 | 0.00 | 29 | 1021.1 |
| 20260510162553 | 15 | 360 | 4.8 | 0.0 | 0.00 | 0.00 | 0.00 | 30 | 1021.3 |
| 20260510162056 | 15 | 360 | 6.4 | 0.0 | 0.00 | 0.00 | 0.00 | 29 | 1021.3 |
| 20260510161601 | 15 | 360 | 8.0 | 0.0 | 0.00 | 0.00 | 0.00 | 29 | 1021.3 |
| 20260510161053 | 15 | 360 | 9.7 | 0.0 | 0.00 | 0.00 | 0.00 | 29 | 1021.4 |
| 20260510160553 | 15 | 360 | 9.7 | 0.0 | 0.00 | 0.00 | 0.00 | 29 | 1021.3 |
| 20260510160053 | 15 | 360 | 8.0 | 0.0 | 0.00 | 0.00 | 0.00 | 30 | 1021.4 |
| 20260510155552 | 15 | 360 | 8.0 | 0.0 | 0.00 | 0.00 | 0.00 | 29 | 1021.4 |
| 20260510155051 | 15 | 360 | 9.7 | 0.0 | 0.00 | 0.00 | 0.00 | 30 | 1021.4 |
| 20260510154557 | 15 | 360 | 9.7 | 0.0 | 0.00 | 0.00 | 0.00 | 30 | 1021.5 |
| 20260510154050 | 15 | 360 | 9.7 | 0.0 | 0.00 | 0.00 | 0.00 | 32 | 1021.5 |
| 20260510153552 | 14 | 360 | 9.7 | 0.0 | 0.00 | 0.00 | 0.00 | 32 | 1021.6 |
| 20260510153052 | 14 | 360 | 8.0 | 0.0 | 0.00 | 0.00 | 0.00 | 33 | 1021.5 |
| 20260510152547 | 14 | 360 | 8.0 | 0.0 | 0.00 | 0.00 | 0.00 | 33 | 1021.6 |
| 20260510152047 | 13 | 360 | 9.7 | 0.0 | 0.00 | 0.00 | 0.00 | 35 | 1021.6 |
| 20260510151546 | 13 | 360 | 9.7 | 0.0 | 0.00 | 0.00 | 0.00 | 37 | 1021.6 |
| 20260510151044 | 13 | 360 | 9.7 | 0.0 | 0.00 | 0.00 | 0.00 | 36 | 1021.6 |
| 20260510150543 | 13 | 360 | 9.7 | 0.0 | 0.00 | 0.00 | 0.00 | 38 | 1021.7 |
| 20260510150103 | 13 | 360 | 11.3 | 0.0 | 0.00 | 0.00 | 0.00 | 38 | 1021.6 |
| 20260510145542 | 12 | 360 | 9.7 | 0.0 | 0.00 | 0.00 | 0.00 | 38 | 1021.6 |
| 20260510145040 | 12 | 360 | 9.7 | 0.0 | 0.00 | 0.00 | 0.00 | 38 | 1021.7 |
| 20260510144538 | 12 | 360 | 9.7 | 0.0 | 0.00 | 0.00 | 0.00 | 39 | 1021.6 |
| 20260510144039 | 12 | 360 | 9.7 | 0.0 | 0.00 | 0.00 | 0.00 | 39 | 1021.6 |
| 20260510143536 | 12 | 360 | 9.7 | 0.0 | 0.00 | 0.00 | 0.00 | 40 | 1021.6 |
| 20260510143038 | 11 | 360 | 9.7 | 0.0 | 0.00 | 0.00 | 0.00 | 41 | 1021.6 |
| 20260510142534 | 11 | 360 | 11.3 | 0.0 | 0.00 | 0.00 | 0.00 | 41 | 1021.6 |
| 20260510142033 | 11 | 360 | 11.3 | 0.0 | 0.00 | 0.00 | 0.00 | 41 | 1021.6 |
| 20260510141533 | 11 | 360 | 11.3 | 0.0 | 0.00 | 0.00 | 0.00 | 42 | 1021.8 |
| 20260510141035 | 11 | 360 | 9.7 | 0.0 | 0.00 | 0.00 | 0.00 | 42 | 1021.8 |
| 20260510140531 | 10 | 360 | 9.7 | 0.0 | 0.00 | 0.00 | 0.00 | 44 | 1021.9 |
| 20260510140030 | 10 | 360 | 9.7 | 0.0 | 0.00 | 0.00 | 0.00 | 44 | 1022.0 |
| 20260510135529 | 10 | 360 | 9.7 | 0.0 | 0.00 | 0.00 | 0.00 | 44 | 1022.0 |
| 20260510135030 | 10 | 360 | 11.3 | 0.0 | 0.00 | 0.00 | 0.00 | 45 | 1022.1 |
| 20260510134528 | 9 | 360 | 11.3 | 0.0 | 0.00 | 0.00 | 0.00 | 46 | 1022.1 |
| 20260510134026 | 9 | 360 | 9.7 | 0.0 | 0.00 | 0.00 | 0.00 | 47 | 1022.0 |
| 20260510133524 | 8 | 360 | 8.0 | 0.0 | 0.00 | 0.00 | 0.00 | 50 | 1021.9 |
| 20260510133024 | 8 | 360 | 6.4 | 0.0 | 0.00 | 0.00 | 0.00 | 50 | 1021.9 |
| 20260510132524 | 8 | 360 | 4.8 | 0.0 | 0.00 | 0.00 | 0.00 | 51 | 1021.9 |
| 20260510132028 | 7 | 360 | 4.8 | 0.0 | 0.00 | 0.00 | 0.00 | 52 | 1021.9 |
| 20260510131523 | 7 | 360 | 3.2 | 0.0 | 0.00 | 0.00 | 0.00 | 54 | 1022.0 |
| 20260510131022 | 7 | 360 | 1.6 | 0.0 | 0.00 | 0.00 | 0.00 | 55 | 1022.0 |
| 20260510130526 | 6 | 360 | 1.6 | 0.0 | 0.00 | 0.00 | 0.00 | 56 | 1021.9 |
| 20260510130022 | 6 | 360 | 3.2 | 0.0 | 0.00 | 0.00 | 0.00 | 57 | 1021.9 |
| 20260510125521 | 5 | 360 | 3.2 | 0.0 | 0.00 | 0.00 | 0.00 | 59 | 1021.9 |
| 20260510125022 | 5 | 360 | 1.6 | 0.0 | 0.00 | 0.00 | 0.00 | 61 | 1021.9 |
| 20260510124527 | 3 | 360 | 1.6 | 0.0 | 0.00 | 0.00 | 0.00 | 65 | 1021.9 |
| 20260510124023 | 3 | 360 | 1.6 | 0.0 | 0.00 | 0.00 | 0.00 | 67 | 1021.8 |
| 20260510123521 | 2 | 360 | 3.2 | 0.0 | 0.00 | 0.00 | 0.00 | 69 | 1021.8 |
| 20260510123020 | 1 | 360 | 1.6 | 0.0 | 0.00 | 0.00 | 0.00 | 70 | 1021.8 |
| 20260510122519 | 0 | 360 | 0.0 | 0.0 | 0.00 | 0.00 | 0.00 | 71 | 1021.8 |
| 20260510122021 | 0 | 360 | 0.0 | 0.0 | 0.00 | 0.00 | 0.00 | 70 | 1021.7 |
| 20260510121518 | 0 | 360 | 0.0 | 0.0 | 0.00 | 0.00 | 0.00 | 70 | 1021.6 |
| 20260510121019 | 0 | 360 | 0.0 | 0.0 | 0.00 | 0.00 | 0.00 | 70 | 1021.6 |
| 20260510120522 | 0 | 360 | 0.0 | 0.0 | 0.00 | 0.00 | 0.00 | 69 | 1021.5 |
| 20260510120025 | 0 | 360 | 0.0 | 0.0 | 0.00 | 0.00 | 0.00 | 69 | 1021.5 |
| 20260510115519 | 0 | 360 | 0.0 | 0.0 | 0.00 | 0.00 | 0.00 | 68 | 1021.5 |
| 20260510115020 | 0 | 360 | 0.0 | 0.0 | 0.00 | 0.00 | 0.00 | 67 | 1021.4 |
| 20260510114525 | 0 | 360 | 0.0 | 0.0 | 0.00 | 0.00 | 0.00 | 66 | 1021.4 |
| 20260510114015 | 0 | 360 | 1.6 | 0.0 | 0.00 | 0.00 | 0.00 | 66 | 1021.4 |
| 20260510113514 | 0 | 360 | 1.6 | 0.0 | 0.00 | 0.00 | 0.00 | 65 | 1021.4 |
| 20260510113013 | 0 | 360 | 1.6 | 0.0 | 0.00 | 0.00 | 0.00 | 64 | 1021.4 |
| 20260510112512 | 0 | 360 | 0.0 | 0.0 | 0.00 | 0.00 | 0.00 | 62 | 1021.4 |
| 20260510112015 | 0 | 360 | 0.0 | 0.0 | 0.00 | 0.00 | 0.00 | 62 | 1021.4 |
| 20260510111510 | 1 | 360 | 0.0 | 0.0 | 0.00 | 0.00 | 0.00 | 59 | 1021.4 |
| 20260510111009 | 1 | 360 | 0.0 | 0.0 | 0.00 | 0.00 | 0.00 | 59 | 1021.4 |
| 20260510110507 | 1 | 360 | 0.0 | 0.0 | 0.00 | 0.00 | 0.00 | 59 | 1021.4 |
| 20260510110006 | 2 | 360 | 1.6 | 0.0 | 0.00 | 0.00 | 0.00 | 59 | 1021.5 |
| 20260510105505 | 2 | 360 | 1.6 | 0.0 | 0.00 | 0.00 | 0.00 | 58 | 1021.4 |
| 20260510105004 | 2 | 360 | 1.6 | 0.0 | 0.00 | 0.00 | 0.00 | 57 | 1021.5 |
| 20260510104502 | 3 | 360 | 1.6 | 0.0 | 0.00 | 0.00 | 0.00 | 59 | 1021.5 |
| 20260510104005 | 3 | 360 | 0.0 | 0.0 | 0.00 | 0.00 | 0.00 | 57 | 1021.5 |
| 20260510103600 | 3 | 360 | 0.0 | 0.0 | 0.00 | 0.00 | 0.00 | 57 | 1021.5 |
| 20260510103105 | 3 | 360 | 0.0 | 0.0 | 0.00 | 0.00 | 0.00 | 57 | 1021.4 |
| 20260510102559 | 3 | 360 | 0.0 | 0.0 | 0.00 | 0.00 | 0.00 | 57 | 1021.4 |
| 20260510102057 | 3 | 360 | 0.0 | 0.0 | 0.00 | 0.00 | 0.00 | 56 | 1021.3 |
| 20260510101600 | 4 | 360 | 1.6 | 0.0 | 0.00 | 0.00 | 0.00 | 56 | 1021.4 |
| 20260510100556 | 4 | 360 | 1.6 | 0.0 | 0.00 | 0.00 | 0.00 | 56 | 1021.3 |
| 20260510100055 | 4 | 360 | 0.0 | 0.0 | 0.00 | 0.00 | 0.00 | 55 | 1021.3 |
| 20260510095555 | 5 | 360 | 0.0 | 0.0 | 0.00 | 0.00 | 0.00 | 54 | 1021.3 |
| 20260510095054 | 5 | 360 | 0.0 | 0.0 | 0.00 | 0.00 | 0.00 | 54 | 1021.3 |
| 20260510094607 | 5 | 360 | 0.0 | 0.0 | 0.00 | 0.00 | 0.00 | 54 | 1021.3 |
| 20260510094054 | 5 | 360 | 0.0 | 0.0 | 0.00 | 0.00 | 0.00 | 54 | 1021.3 |
| 20260510093552 | 5 | 360 | 1.6 | 0.0 | 0.00 | 0.00 | 0.00 | 53 | 1021.3 |
| 20260510093110 | 5 | 360 | 3.2 | 0.0 | 0.00 | 0.00 | 0.00 | 52 | 1021.3 |
| 20260510092550 | 5 | 360 | 3.2 | 0.0 | 0.00 | 0.00 | 0.00 | 50 | 1021.2 |
| 20260510092049 | 6 | 360 | 1.6 | 0.0 | 0.00 | 0.00 | 0.00 | 49 | 1021.3 |
| 20260510091547 | 6 | 360 | 1.6 | 0.0 | 0.00 | 0.00 | 0.00 | 48 | 1021.1 |
| 20260510090546 | 6 | 360 | 3.2 | 0.0 | 0.00 | 0.00 | 0.00 | 47 | 1021.0 |
| 20260510090047 | 7 | 360 | 3.2 | 0.0 | 0.00 | 0.00 | 0.00 | 46 | 1021.0 |
| 20260510085543 | 7 | 360 | 1.6 | 0.0 | 0.00 | 0.00 | 0.00 | 46 | 1021.0 |
| 20260510085043 | 7 | 360 | 0.0 | 0.0 | 0.00 | 0.00 | 0.00 | 45 | 1021.1 |
| 20260510084541 | 7 | 360 | 0.0 | 0.0 | 0.00 | 0.00 | 0.00 | 44 | 1021.1 |
| 20260510084040 | 7 | 360 | 0.0 | 0.0 | 0.00 | 0.00 | 0.00 | 44 | 1021.1 |
| 20260510083540 | 7 | 360 | 0.0 | 0.0 | 0.00 | 0.00 | 0.00 | 44 | 1021.1 |
| 20260510083051 | 8 | 360 | 0.0 | 0.0 | 0.00 | 0.00 | 0.00 | 44 | 1021.1 |
| 20260510082538 | 8 | 360 | 1.6 | 0.0 | 0.00 | 0.00 | 0.00 | 44 | 1021.1 |
| 20260510082038 | 8 | 360 | 1.6 | 0.0 | 0.00 | 0.00 | 0.00 | 43 | 1021.1 |
| 20260510081541 | 8 | 360 | 1.6 | 0.0 | 0.00 | 0.00 | 0.00 | 42 | 1021.1 |
| 20260510080539 | 8 | 360 | 0.0 | 0.0 | 0.00 | 0.00 | 0.00 | 43 | 1021.0 |
| 20260510080036 | 8 | 360 | 0.0 | 0.0 | 0.00 | 0.00 | 0.00 | 43 | 1020.9 |
| 20260510075536 | 8 | 360 | 0.0 | 0.0 | 0.00 | 0.00 | 0.00 | 43 | 1020.8 |
| 20260510075036 | 8 | 360 | 0.0 | 0.0 | 0.00 | 0.00 | 0.00 | 43 | 1020.9 |
| 20260510074535 | 8 | 360 | 3.2 | 0.0 | 0.00 | 0.00 | 0.00 | 43 | 1020.9 |
| 20260510074036 | 8 | 360 | 3.2 | 0.0 | 0.00 | 0.00 | 0.00 | 43 | 1020.8 |
| 20260510073535 | 8 | 360 | 1.6 | 0.0 | 0.00 | 0.00 | 0.00 | 43 | 1020.8 |
| 20260510073040 | 8 | 360 | 3.2 | 0.0 | 0.00 | 0.00 | 0.00 | 42 | 1020.8 |
| 20260510072534 | 8 | 360 | 3.2 | 0.0 | 0.00 | 0.00 | 0.00 | 43 | 1020.7 |
| 20260510072034 | 8 | 360 | 4.8 | 0.0 | 0.00 | 0.00 | 0.00 | 43 | 1020.6 |
| 20260510071537 | 8 | 360 | 4.8 | 0.0 | 0.00 | 0.00 | 0.00 | 43 | 1020.7 |
| 20260510070534 | 8 | 360 | 6.4 | 0.0 | 0.00 | 0.00 | 0.00 | 42 | 1020.7 |
| 20260510070033 | 8 | 360 | 4.8 | 0.0 | 0.00 | 0.00 | 0.00 | 42 | 1020.6 |
| 20260510065532 | 8 | 360 | 4.8 | 0.0 | 0.00 | 0.00 | 0.00 | 43 | 1020.6 |
| 20260510065032 | 8 | 360 | 3.2 | 0.0 | 0.00 | 0.00 | 0.00 | 44 | 1020.5 |
| 20260510064531 | 8 | 360 | 1.6 | 0.0 | 0.00 | 0.00 | 0.00 | 43 | 1020.5 |
| 20260510064028 | 8 | 360 | 0.0 | 0.0 | 0.00 | 0.00 | 0.00 | 43 | 1020.4 |
| 20260510063529 | 8 | 360 | 0.0 | 0.0 | 0.00 | 0.00 | 0.00 | 43 | 1020.5 |
| 20260510063028 | 8 | 360 | 0.0 | 0.0 | 0.00 | 0.00 | 0.00 | 42 | 1020.6 |
| 20260510062528 | 8 | 360 | 0.0 | 0.0 | 0.00 | 0.00 | 0.00 | 43 | 1020.6 |
| 20260510062027 | 8 | 360 | 0.0 | 0.0 | 0.00 | 0.00 | 0.00 | 43 | 1020.6 |
| 20260510061527 | 8 | 360 | 1.6 | 0.0 | 0.00 | 0.00 | 0.00 | 41 | 1020.6 |
| 20260510060530 | 8 | 360 | 1.6 | 0.0 | 0.00 | 0.00 | 0.00 | 41 | 1020.4 |
| 20260510060037 | 8 | 360 | 1.6 | 0.0 | 0.00 | 0.00 | 0.00 | 41 | 1020.4 |
| 20260510055526 | 8 | 360 | 1.6 | 0.0 | 0.00 | 0.00 | 0.00 | 40 | 1020.4 |
| 20260510055026 | 8 | 360 | 1.6 | 0.0 | 0.00 | 0.00 | 0.00 | 41 | 1020.4 |
| 20260510054535 | 8 | 360 | 1.6 | 0.0 | 0.00 | 0.00 | 0.00 | 41 | 1020.4 |
| 20260510054028 | 8 | 360 | 0.0 | 0.0 | 0.00 | 0.00 | 0.00 | 41 | 1020.5 |
| 20260510053525 | 8 | 360 | 1.6 | 0.0 | 0.00 | 0.00 | 0.00 | 41 | 1020.4 |
| 20260510053025 | 8 | 360 | 1.6 | 0.0 | 0.00 | 0.00 | 0.00 | 41 | 1020.3 |
| 20260510052524 | 8 | 360 | 3.2 | 0.0 | 0.00 | 0.00 | 0.00 | 40 | 1020.3 |
| 20260510052024 | 8 | 360 | 3.2 | 0.0 | 0.00 | 0.00 | 0.00 | 41 | 1020.1 |
| 20260510051523 | 8 | 360 | 3.2 | 0.0 | 0.00 | 0.00 | 0.00 | 42 | 1020.0 |
| 20260510050522 | 7 | 360 | 3.2 | 0.0 | 0.00 | 0.00 | 0.00 | 44 | 1019.9 |
| 20260510050022 | 7 | 360 | 3.2 | 0.0 | 0.00 | 0.00 | 0.00 | 44 | 1019.8 |
| 20260510045526 | 7 | 360 | 1.6 | 0.0 | 0.00 | 0.00 | 0.00 | 45 | 1019.7 |
| 20260510045021 | 7 | 360 | 1.6 | 0.0 | 0.00 | 0.00 | 0.00 | 45 | 1019.6 |
| 20260510044519 | 7 | 360 | 1.6 | 0.0 | 0.00 | 0.00 | 0.00 | 44 | 1019.5 |
| 20260510044019 | 7 | 360 | 3.2 | 0.0 | 0.00 | 0.00 | 0.00 | 44 | 1019.4 |
| 20260510043519 | 7 | 360 | 4.8 | 0.0 | 0.00 | 0.00 | 0.00 | 45 | 1019.2 |
| 20260510043022 | 6 | 360 | 4.8 | 0.0 | 0.00 | 0.00 | 0.00 | 45 | 1019.2 |
| 20260510042522 | 6 | 360 | 3.2 | 0.0 | 0.00 | 0.00 | 0.00 | 44 | 1019.1 |
| 20260510042017 | 6 | 360 | 1.6 | 0.0 | 0.00 | 0.00 | 0.00 | 44 | 1019.1 |
| 20260510041520 | 7 | 360 | 0.0 | 0.0 | 0.00 | 0.00 | 0.00 | 44 | 1019.1 |
| 20260510040518 | 7 | 360 | 0.0 | 0.0 | 0.00 | 0.00 | 0.00 | 45 | 1018.9 |
| 20260510040016 | 7 | 360 | 0.0 | 0.0 | 0.00 | 0.00 | 0.00 | 45 | 1018.9 |
| 20260510035516 | 7 | 360 | 0.0 | 0.0 | 0.00 | 0.00 | 0.00 | 45 | 1018.9 |
| 20260510035015 | 7 | 360 | 0.0 | 0.0 | 0.00 | 0.00 | 0.00 | 46 | 1018.9 |
| 20260510034521 | 7 | 360 | 0.0 | 0.0 | 0.00 | 0.00 | 0.00 | 45 | 1018.7 |
| 20260510034015 | 6 | 360 | 1.6 | 0.0 | 0.00 | 0.00 | 0.00 | 46 | 1018.6 |
| 20260510033517 | 6 | 360 | 1.6 | 0.0 | 0.00 | 0.00 | 0.00 | 45 | 1018.5 |
| 20260510033014 | 6 | 360 | 0.0 | 0.0 | 0.00 | 0.00 | 0.00 | 45 | 1018.5 |
| 20260510032513 | 6 | 360 | 1.6 | 0.0 | 0.00 | 0.00 | 0.00 | 44 | 1018.4 |
| 20260510032013 | 7 | 360 | 1.6 | 0.0 | 0.00 | 0.00 | 0.00 | 43 | 1018.3 |
| 20260510031514 | 7 | 360 | 3.2 | 0.0 | 0.00 | 0.00 | 0.00 | 42 | 1018.3 |
| 20260510030516 | 8 | 360 | 6.4 | 0.0 | 0.00 | 0.00 | 0.00 | 41 | 1018.1 |
| 20260510030017 | 8 | 360 | 8.0 | 0.0 | 0.00 | 0.00 | 0.00 | 41 | 1017.8 |
| 20260510025513 | 8 | 360 | 6.4 | 0.0 | 0.00 | 0.00 | 0.00 | 40 | 1017.8 |
| 20260510025011 | 8 | 360 | 8.0 | 0.0 | 0.00 | 0.00 | 0.00 | 39 | 1017.7 |
| 20260510024509 | 9 | 360 | 8.0 | 0.0 | 0.00 | 0.00 | 0.00 | 39 | 1017.7 |
| 20260510024009 | 10 | 360 | 8.0 | 0.0 | 0.00 | 0.00 | 0.00 | 38 | 1017.6 |
| 20260510023507 | 10 | 360 | 9.7 | 0.0 | 0.00 | 0.00 | 0.00 | 38 | 1017.5 |
| 20260510023006 | 11 | 360 | 9.7 | 0.0 | 0.00 | 0.00 | 0.00 | 36 | 1017.4 |
| 20260510022506 | 11 | 360 | 9.7 | 0.0 | 0.00 | 0.00 | 0.00 | 36 | 1017.3 |
| 20260510022005 | 11 | 360 | 9.7 | 0.0 | 0.00 | 0.00 | 0.00 | 36 | 1017.2 |
| 20260510021505 | 12 | 360 | 9.7 | 0.0 | 0.00 | 0.00 | 0.00 | 35 | 1017.1 |
| 20260510020508 | 13 | 360 | 11.3 | 0.0 | 0.00 | 0.00 | 0.00 | 34 | 1017.0 |
| 20260510020005 | 13 | 360 | 12.9 | 0.0 | 0.00 | 0.00 | 0.00 | 33 | 1016.9 |
| 20260510015506 | 13 | 360 | 14.5 | 0.0 | 0.00 | 0.00 | 0.00 | 33 | 1016.8 |
| 20260510015004 | 13 | 360 | 14.5 | 0.0 | 0.00 | 0.00 | 0.00 | 33 | 1016.8 |
| 20260510014504 | 14 | 360 | 14.5 | 0.0 | 0.00 | 0.00 | 0.00 | 33 | 1016.7 |
| 20260510014004 | 14 | 360 | 12.9 | 0.0 | 0.00 | 0.00 | 0.00 | 32 | 1016.7 |
| 20260510013505 | 15 | 360 | 14.5 | 0.0 | 0.00 | 0.00 | 0.00 | 32 | 1016.7 |
| 20260510013007 | 15 | 360 | 17.7 | 0.0 | 0.00 | 0.00 | 0.00 | 31 | 1016.7 |
| 20260510012503 | 15 | 360 | 19.3 | 0.0 | 0.00 | 0.00 | 0.00 | 31 | 1016.6 |
| 20260510012003 | 15 | 360 | 19.3 | 0.0 | 0.00 | 0.00 | 0.00 | 30 | 1016.6 |
| 20260510011506 | 16 | 360 | 20.9 | 0.0 | 0.00 | 0.00 | 0.00 | 30 | 1016.7 |
| 20260510010504 | 16 | 360 | 19.3 | 0.0 | 0.00 | 0.00 | 0.00 | 30 | 1016.5 |
| 20260510010005 | 16 | 360 | 17.7 | 0.0 | 0.00 | 0.00 | 0.00 | 30 | 1016.5 |
| 20260510005502 | 16 | 360 | 17.7 | 0.0 | 0.00 | 0.00 | 0.00 | 30 | 1016.5 |
| 20260510005004 | 16 | 360 | 17.7 | 0.0 | 0.00 | 0.00 | 0.00 | 30 | 1016.5 |
| 20260510004501 | 16 | 360 | 17.7 | 0.0 | 0.00 | 0.00 | 0.00 | 30 | 1016.4 |
| 20260510004003 | 16 | 360 | 20.9 | 0.0 | 0.00 | 0.00 | 0.00 | 30 | 1016.4 |
| 20260510003502 | 16 | 360 | 20.9 | 0.0 | 0.00 | 0.00 | 0.00 | 30 | 1016.3 |
| 20260510003002 | 16 | 360 | 20.9 | 0.0 | 0.00 | 0.00 | 0.00 | 30 | 1016.3 |
| 20260510002502 | 17 | 360 | 20.9 | 0.0 | 0.00 | 0.00 | 0.00 | 30 | 1016.2 |
| 20260510002001 | 17 | 360 | 20.9 | 0.0 | 0.00 | 0.00 | 0.00 | 30 | 1016.2 |
| 20260510001501 | 17 | 360 | 20.9 | 0.0 | 0.00 | 0.00 | 0.00 | 29 | 1016.2 |
| 20260510000501 | 17 | 360 | 20.9 | 0.0 | 0.00 | 0.00 | 0.00 | 29 | 1016.2 |
| 20260510000001 | 17 | 360 | 20.9 | 0.0 | 0.00 | 0.00 | 0.00 | 28 | 1016.2 |
| 20260509235501 | 17 | 360 | 22.5 | 0.0 | 0.00 | 0.00 | 0.00 | 28 | 1016.2 |
| 20260509235002 | 17 | 360 | 24.1 | 0.0 | 0.00 | 0.00 | 0.00 | 28 | 1016.0 |
| 20260509234502 | 17 | 360 | 22.5 | 0.0 | 0.00 | 0.00 | 0.00 | 28 | 1016.0 |
| 20260509234000 | 17 | 360 | 22.5 | 0.0 | 0.00 | 0.00 | 0.00 | 28 | 1016.1 |
| 20260509233601 | 18 | 360 | 24.1 | 0.0 | 0.00 | 0.00 | 0.00 | 28 | 1016.0 |
| 20260509233100 | 17 | 360 | 20.9 | 0.0 | 0.00 | 0.00 | 0.00 | 30 | 1015.8 |
| 20260509232600 | 17 | 360 | 19.3 | 0.0 | 0.00 | 0.00 | 0.00 | 30 | 1015.8 |
| 20260509232100 | 17 | 360 | 19.3 | 0.0 | 0.00 | 0.00 | 0.00 | 30 | 1015.9 |
| 20260509231605 | 18 | 360 | 20.9 | 0.0 | 0.00 | 0.00 | 0.00 | 29 | 1015.8 |
| 20260509230559 | 18 | 360 | 19.3 | 0.0 | 0.00 | 0.00 | 0.00 | 29 | 1015.7 |
| 20260509225559 | 18 | 360 | 22.5 | 0.0 | 0.00 | 0.00 | 0.00 | 29 | 1015.7 |
| 20260509225059 | 18 | 360 | 22.5 | 0.0 | 0.00 | 0.00 | 0.00 | 29 | 1015.7 |
| 20260509224602 | 18 | 360 | 20.9 | 0.0 | 0.00 | 0.00 | 0.00 | 30 | 1015.7 |
| 20260509224059 | 18 | 360 | 20.9 | 0.0 | 0.00 | 0.00 | 0.00 | 30 | 1015.8 |
| 20260509223559 | 17 | 360 | 25.7 | 0.0 | 0.00 | 0.00 | 0.00 | 31 | 1015.9 |
| 20260509223059 | 18 | 360 | 22.5 | 0.0 | 0.00 | 0.00 | 0.00 | 29 | 1015.9 |
| 20260509222700 | 18 | 360 | 19.3 | 0.0 | 0.00 | 0.00 | 0.00 | 29 | 1015.7 |
| 20260509222058 | 18 | 360 | 19.3 | 0.0 | 0.00 | 0.00 | 0.00 | 30 | 1015.8 |
| 20260509221600 | 18 | 360 | 20.9 | 0.0 | 0.00 | 0.00 | 0.00 | 28 | 1015.9 |
| 20260509220557 | 18 | 360 | 22.5 | 0.0 | 0.00 | 0.00 | 0.00 | 31 | 1015.7 |
| 20260509220107 | 18 | 360 | 22.5 | 0.0 | 0.00 | 0.00 | 0.00 | 30 | 1015.9 |
| 20260509215559 | 18 | 360 | 19.3 | 0.0 | 0.00 | 0.00 | 0.00 | 30 | 1016.0 |
| 20260509215058 | 18 | 360 | 19.3 | 0.0 | 0.00 | 0.00 | 0.00 | 30 | 1015.9 |
| 20260509214601 | 18 | 360 | 20.9 | 0.0 | 0.00 | 0.00 | 0.00 | 31 | 1016.2 |
| 20260509214057 | 17 | 360 | 20.9 | 0.0 | 0.00 | 0.00 | 0.00 | 31 | 1016.1 |
| 20260509213600 | 17 | 360 | 19.3 | 0.0 | 0.00 | 0.00 | 0.00 | 32 | 1016.2 |
| 20260509213122 | 17 | 360 | 19.3 | 0.0 | 0.00 | 0.00 | 0.00 | 33 | 1016.2 |
| 20260509212559 | 16 | 360 | 19.3 | 0.0 | 0.00 | 0.00 | 0.00 | 33 | 1016.2 |
| 20260509212057 | 17 | 360 | 19.3 | 0.0 | 0.00 | 0.00 | 0.00 | 31 | 1016.2 |
| 20260509211554 | 17 | 360 | 20.9 | 0.0 | 0.00 | 0.00 | 0.00 | 32 | 1016.0 |
| 20260509210554 | 17 | 360 | 20.9 | 0.0 | 0.00 | 0.00 | 0.00 | 32 | 1016.1 |
| 20260509210104 | 17 | 360 | 19.3 | 0.0 | 0.00 | 0.00 | 0.00 | 33 | 1016.2 |
| 20260509205553 | 16 | 360 | 19.3 | 0.0 | 0.00 | 0.00 | 0.00 | 34 | 1016.2 |
| 20260509205053 | 16 | 360 | 19.3 | 0.0 | 0.00 | 0.00 | 0.00 | 34 | 1016.3 |
| 20260509204553 | 17 | 360 | 19.3 | 0.0 | 0.00 | 0.00 | 0.00 | 32 | 1016.3 |
| 20260509204053 | 17 | 360 | 22.5 | 0.0 | 0.00 | 0.00 | 0.00 | 32 | 1016.4 |
| 20260509203553 | 17 | 360 | 22.5 | 0.0 | 0.00 | 0.00 | 0.00 | 32 | 1016.4 |
| 20260509203052 | 17 | 360 | 22.5 | 0.0 | 0.00 | 0.00 | 0.00 | 33 | 1016.3 |
| 20260509202552 | 16 | 360 | 20.9 | 0.0 | 0.00 | 0.00 | 0.00 | 35 | 1016.4 |
| 20260509202052 | 16 | 360 | 20.9 | 0.0 | 0.00 | 0.00 | 0.00 | 34 | 1016.4 |
| 20260509201552 | 17 | 360 | 24.1 | 0.0 | 0.00 | 0.00 | 0.00 | 33 | 1016.5 |